AirNav   Pilot Hours Calculator
 
 1396 users online  

2MU1 Saint Louis Children's Hospital Heliport
Saint Louis, Missouri, USA

GOING TO SAINT LOUIS?


FAA INFORMATION EFFECTIVE 10 OCTOBER 2019

Location

FAA Identifier: 2MU1
Lat/Long: 38-38-16.7000N 090-15-53.6500W
38-38.278333N 090-15.894167W
38.6379722,-90.2649028
(estimated)
Elevation: 610 ft. / 186 m (estimated)
Variation: 01E (1995)
Time zone: UTC -5 (UTC -6 during Standard Time)
Zip code: 63110

Heliport Operations

Heliport use: Private use, MEDICAL USE.
Activation date: 07/1997
Control tower: no
ARTCC: KANSAS CITY CENTER
FSS: SAINT LOUIS FLIGHT SERVICE STATION
Attendance: ON CALL
Wind indicator: yes
Segmented circle: no
Lights: FOR PERIMETER LGTS CALL 417-434-6000.

Heliport Communications

WX ASOS at CPS (7 nm SE): PHONE 618-332-0001
WX ASOS at STL (8 nm NW): PHONE 314-890-4790
WX ASOS at SUS (18 nm W): 134.8 (314-890-7255)
WX AWOS-3 at ALN (18 nm NE): 128.0 (618-259-7231)
WX ASOS at SET (19 nm NW): 118.075 (636-250-4590)

Nearby radio navigation aids

VOR radial/distance  VOR name  Freq  Var
STLr142/16.8ST LOUIS VORTAC117.4001E
TOYr245/17.3TROY VORTAC116.0004E
FTZr091/33.3FORISTELL VORTAC110.8005E

 
NDB name  Hdg/Dist  Freq  Var  ID
ZUMAY177/9.040401WST ... -
ACORE306/12.035000ECP -.-. .--.
EAVES101/13.422701WFZ ..-. --..
OBLIO136/13.833801WLM .-.. --
CIVIC MEMORIAL214/18.126301WCVM -.-. ...- --

Heliport Services

Runway Information

Helipad H1

Dimensions: 60 x 60 ft. / 18 x 18 m
Surface: concrete
Runway edge lights: PERI
Latitude: 38-38.278333N
Longitude: 090-15.894167W
Elevation: 610.0 ft.
Traffic pattern: leftleft

Heliport Ownership and Management from official FAA records

Ownership: Privately-owned
Owner: SAINT LOUIS CHILDREN'S HOSP.
1 CHILDREN'S PLACE
SAINT LOUIS, MO 63110-1077
Phone 314-454-6000
Manager: FACILITIES MANAGER
1 CHILDREN'S PLACE
SAINT LOUIS, MO 63110-1077
Phone 314-454-6000

Additional Remarks

ROOFTOP.
OWNER DESIRES HELIPORT NOT BE CHARTED.
FOR CD CTC ST LOUIS APCH AT 314-890-1018.

Instrument Procedures

There are no published instrument procedures at 2MU1.

Some nearby airports with instrument procedures:

KCPS - St Louis Downtown Airport (7 nm SE)
KSTL - St Louis Lambert International Airport (8 nm NW)
1H0 - Creve Coeur Airport (13 nm NW)
KSUS - Spirit of St Louis Airport (18 nm W)
KALN - St Louis Regional Airport (18 nm NE)
KSET - St Charles County Smartt Airport (19 nm NW)
 
Loc | Ops | Rwys | IFR | FBO | Links
Com | Nav | Svcs | Stats | Notes

Kansas City Aviation Department
 
Area around 2MU1 (Saint Louis Children's Hospital Heliport)
 
Road maps at: MapQuest Bing Google
 
Aerial photo
No photo
 
Sectional chart

 
Airport distance calculator
Flying to Saint Louis Children's Hospital Heliport? Find the distance to fly.

From to 2MU1

Sunrise and sunset
Times for 22-Oct-2019
 Local
(UTC-5)
 Zulu
(UTC)
Morning civil twilight06:5111:51
Sunrise07:1812:18
Sunset18:1323:13
Evening civil twilight18:4023:40

Current date and time
Zulu (UTC)  22-Oct-2019 20:16:33
Local (UTC-5)  22-Oct-2019 15:16:33
 
METAR
KCPS 
7nm SE 
221953Z 24012G22KT 10SM FEW060 16/01 A2989 RMK AO2 SLP120 T01560011
KSTL 
8nm NW 
221951Z 27016G24KT 10SM FEW055 16/01 A2989 RMK AO2 PK WND 22027/1931 SLP120 T01610006
KSUS 
18nm W 
221954Z 25016G27KT 10SM FEW050 16/M01 A2989 RMK AO2 PK WND 25032/1940 SLP121 T01611006
KALN 
18nm NE 
221946Z 25012KT 10SM BKN050 15/04 A2988
KSET 
19nm NW 
221954Z AUTO A2987 RMK AO2 SLPNO PWINO FZRANO $
TAF
KCPS 
7nm SE 
221720Z 2218/2318 27014G26KT P6SM FEW035 FM222300 27010KT P6SM FEW250 FM230200 22006KT P6SM SKC FM231500 21010G18KT P6SM SCT250
KSTL 
8nm NW 
221720Z 2218/2324 27015G27KT P6SM FEW035 FM230000 26007KT P6SM SKC FM230400 22006KT P6SM SKC FM231500 22012G22KT P6SM SCT250
KSUS 
18nm W 
221720Z 2218/2318 27014G28KT P6SM FEW035 FM222300 27009KT P6SM SKC FM230200 22006KT P6SM SKC FM231500 22011G18KT P6SM SCT250
NOTAMs
Click for the latest NOTAMs
NOTAMs are issued by the DoD/FAA and will open in a separate window not controlled by AirNav.

 

 
 

Would you like to see your business listed on this page?

 If your business provides an interesting product or service to pilots, flight crews, aircraft, or users of the Saint Louis Children's Hospital Heliport, you should consider listing it here.  To start the listing process, click on the button below
 
Add a business
 

Other Pages about Saint Louis Children's Hospital Heliport

Update a link
 
Copyright © AirNav, LLC. All rights reserved. Privacy Policy  Contact